DW0088 Weather Reports


Display with metric or nautical units.
time (UTC)temp
F
wind
direction
speed
MPH
gust
MPH
rain 1hr
in
rain 24hr
in
rain mn
in
humidity
%
barometer
mb
20260509033955 43 0 0.0 0.0 0.00 0.00 0.00 97 1017.6
20260509032956 43 63 0.0 1.0 0.00 0.00 0.00 97 1017.6
20260509030956 43 65 1.0 3.0 0.00 0.00 0.00 96 1017.7
20260509025956 43 71 0.0 1.0 0.00 0.00 0.00 96 1017.9
20260509024956 43 71 0.0 1.0 0.00 0.00 0.00 96 1017.9
20260509022957 44 0 0.0 0.0 0.00 0.00 0.00 95 1017.9
20260509021956 44 0 0.0 0.0 0.00 0.00 0.00 95 1017.9
20260509020956 45 0 0.0 0.0 0.00 0.00 0.00 95 1017.9
20260509015956 45 0 0.0 0.0 0.00 0.00 0.00 95 1018.0
20260509014956 45 0 0.0 0.0 0.00 0.00 0.00 96 1018.0
20260509013958 45 0 0.0 0.0 0.00 0.00 0.00 95 1018.0
20260509012956 45 0 0.0 0.0 0.00 0.00 0.00 95 1018.1
20260509011956 45 70 0.0 1.0 0.00 0.00 0.00 94 1018.1
20260509010956 45 71 0.0 1.0 0.00 0.00 0.00 94 1018.1
20260509005957 45 71 1.0 2.0 0.00 0.00 0.00 93 1018.1
20260509003956 46 0 0.0 0.0 0.00 0.00 0.00 92 1018.1
20260509002956 46 0 0.0 0.0 0.00 0.00 0.00 92 1018.1
20260509001956 46 71 0.0 1.0 0.00 0.00 0.00 91 1018.1
20260508234957 47 70 1.0 4.0 0.00 0.00 0.00 90 1018.1
20260508233956 48 64 1.0 3.0 0.00 0.00 0.00 90 1018.1
20260508232957 48 51 1.0 3.0 0.00 0.00 0.00 90 1018.1
20260508231957 48 49 2.0 3.0 0.00 0.00 0.00 91 1018.1
20260508230957 48 44 0.0 2.0 0.00 0.00 0.00 90 1018.1
20260508224958 49 36 2.0 3.0 0.00 0.00 0.00 89 1018.0
20260508223957 49 0 0.0 0.0 0.00 0.00 0.00 88 1018.1
20260508222957 49 0 0.0 0.0 0.00 0.00 0.00 87 1018.0
20260508221957 50 0 0.0 0.0 0.00 0.00 0.00 86 1018.0
20260508220957 50 0 0.0 0.0 0.00 0.00 0.00 85 1018.0
20260508220000 50 0 0.0 0.0 0.00 0.00 0.00 85 1018.0
20260508214956 51 22 2.0 3.0 0.00 0.00 0.00 84 1018.0
20260508213956 51 52 0.0 2.0 0.00 0.00 0.00 84 1018.0
20260508212958 51 51 0.0 2.0 0.00 0.00 0.00 83 1017.9
20260508211957 51 51 1.0 3.0 0.00 0.00 0.00 84 1017.9
20260508210957 52 55 2.0 3.0 0.00 0.00 0.00 83 1017.7
20260508205958 53 56 2.0 4.0 0.00 0.00 0.00 82 1017.8
20260508204957 53 60 2.0 3.0 0.00 0.00 0.00 80 1017.8
20260508203957 53 35 1.0 2.0 0.00 0.00 0.00 81 1017.9
20260508202957 54 29 0.0 3.0 0.00 0.00 0.00 81 1017.9
20260508201959 54 16 1.0 3.0 0.00 0.00 0.00 79 1017.9
20260508200957 55 328 1.0 4.0 0.00 0.00 0.00 77 1017.7
20260508195957 55 316 1.0 3.0 0.00 0.00 0.00 75 1017.6
20260508194957 56 37 0.0 1.0 0.00 0.00 0.00 75 1017.6
20260508193957 56 36 1.0 2.0 0.00 0.00 0.00 74 1017.5
20260508191957 58 38 2.0 3.0 0.00 0.00 0.00 71 1017.3
20260508183934 61 44 4.0 5.0 0.00 0.00 0.00 67 1016.9
20260508182935 61 43 4.0 5.0 0.00 0.00 0.00 66 1016.8
20260508181934 61 37 4.0 6.0 0.00 0.00 0.00 64 1016.8
20260508180935 62 40 3.0 7.0 0.00 0.00 0.00 65 1016.7
20260508175935 62 37 4.0 7.0 0.00 0.00 0.00 63 1016.6
20260508174935 62 45 3.0 5.0 0.00 0.00 0.00 63 1016.6
20260508173935 62 61 3.0 7.0 0.00 0.00 0.00 63 1016.5
20260508171935 62 60 4.0 8.0 0.00 0.00 0.00 64 1016.4
20260508170934 63 73 4.0 7.0 0.00 0.00 0.00 62 1016.2
20260508165935 63 72 4.0 8.0 0.00 0.00 0.00 61 1016.0
20260508164936 63 66 3.0 8.0 0.00 0.00 0.00 59 1016.0
20260508163934 63 93 6.0 9.0 0.00 0.00 0.00 57 1016.0
20260508162935 64 92 5.0 10.0 0.00 0.00 0.00 58 1016.1
20260508161935 64 94 6.0 11.0 0.00 0.00 0.00 58 1016.1
20260508155935 64 83 6.0 9.0 0.00 0.00 0.00 58 1016.1
20260508153935 64 50 8.0 13.0 0.00 0.00 0.00 63 1016.3
20260508152935 64 45 8.0 15.0 0.00 0.00 0.00 61 1016.5
20260508151935 64 49 8.0 11.0 0.00 0.00 0.00 62 1016.5
20260508145937 63 48 8.0 11.0 0.00 0.00 0.00 66 1016.6
20260508144937 63 51 7.0 11.0 0.00 0.00 0.00 66 1016.6
20260508142935 63 44 8.0 11.0 0.00 0.00 0.00 65 1016.6
20260508140935 63 48 6.0 10.0 0.00 0.00 0.00 63 1016.8
20260508135935 63 48 6.0 8.0 0.00 0.00 0.00 62 1016.9
20260508134935 63 42 5.0 8.0 0.00 0.00 0.00 63 1016.9
20260508133935 62 41 6.0 10.0 0.00 0.00 0.00 66 1017.0
20260508132936 62 50 6.0 9.0 0.00 0.00 0.00 65 1017.0
20260508130936 62 73 3.0 8.0 0.00 0.00 0.00 61 1017.0
20260508125935 62 74 3.0 7.0 0.00 0.00 0.00 63 1017.1
20260508124937 62 82 3.0 7.0 0.00 0.00 0.00 62 1017.1
20260508123936 62 91 2.0 7.0 0.00 0.00 0.00 65 1017.1
20260508122937 62 103 3.0 8.0 0.00 0.00 0.00 64 1017.1
20260508121935 62 104 2.0 7.0 0.00 0.00 0.00 65 1017.1
20260508120936 62 114 4.0 8.0 0.00 0.00 0.00 64 1017.0
20260508115936 62 127 1.0 5.0 0.00 0.00 0.00 67 1017.0
20260508114935 62 88 3.0 8.0 0.00 0.00 0.00 66 1017.0
20260508113937 62 93 3.0 8.0 0.00 0.00 0.00 64 1017.0
20260508112936 62 101 2.0 5.0 0.00 0.00 0.00 61 1017.1
20260508111935 62 97 4.0 8.0 0.00 0.00 0.00 61 1017.1
20260508110935 63 111 4.0 8.0 0.00 0.00 0.00 68 1017.1
20260508105937 63 103 3.0 8.0 0.00 0.00 0.00 69 1017.1
20260508104936 62 111 3.0 9.0 0.00 0.00 0.00 67 1017.1
20260508103937 62 108 1.0 3.0 0.00 0.00 0.00 69 1017.1
20260508102936 62 109 5.0 9.0 0.00 0.00 0.00 70 1017.2
20260508101936 61 68 3.0 8.0 0.00 0.00 0.00 74 1017.2
20260508100936 61 53 4.0 8.0 0.00 0.00 0.00 74 1017.2
20260508095936 60 64 5.0 8.0 0.00 0.00 0.00 73 1017.3
20260508094936 60 78 3.0 9.0 0.00 0.00 0.00 76 1017.3
20260508092937 59 68 4.0 7.0 0.00 0.00 0.00 79 1017.4
20260508091937 58 90 3.0 7.0 0.00 0.00 0.00 80 1017.4
20260508090936 58 80 3.0 8.0 0.00 0.00 0.00 80 1017.4
20260508085937 58 63 4.0 7.0 0.00 0.00 0.00 83 1017.4
20260508084937 57 65 4.0 8.0 0.00 0.00 0.00 81 1017.4
20260508083936 57 69 4.0 9.0 0.00 0.00 0.00 82 1017.4
20260508082936 56 65 4.0 8.0 0.00 0.00 0.00 84 1017.3
20260508081936 56 78 4.0 8.0 0.00 0.00 0.00 83 1017.3
20260508074936 55 62 4.0 7.0 0.00 0.00 0.00 84 1017.2
20260508072937 54 52 4.0 7.0 0.00 0.00 0.00 87 1017.1
20260508071936 54 61 4.0 7.0 0.00 0.00 0.00 87 1017.1
20260508070936 53 70 4.0 7.0 0.00 0.00 0.00 87 1017.1
20260508065937 53 63 5.0 8.0 0.00 0.00 0.00 88 1017.0
20260508064936 53 90 4.0 7.0 0.00 0.00 0.00 88 1017.0
20260508063937 53 74 3.0 7.0 0.00 0.00 0.00 89 1016.9
20260508062937 52 70 4.0 7.0 0.00 0.00 0.00 89 1016.8
20260508061936 52 84 4.0 7.0 0.00 0.00 0.00 89 1016.8
20260508060937 52 71 3.0 5.0 0.00 0.00 0.00 90 1016.7
20260508055936 51 82 4.0 8.0 0.00 0.00 0.00 90 1016.7
20260508054937 51 75 4.0 7.0 0.00 0.00 0.00 90 1016.7
20260508053937 51 65 4.0 9.0 0.00 0.00 0.00 91 1016.6
20260508051937 51 67 3.0 8.0 0.00 0.00 0.00 91 1016.6
20260508050936 50 79 2.0 5.0 0.00 0.00 0.00 91 1016.5
20260508045936 50 69 3.0 7.0 0.00 0.00 0.00 91 1016.5
20260508044937 50 72 4.0 7.0 0.00 0.00 0.00 91 1016.5
20260508043937 50 69 3.0 5.0 0.00 0.00 0.00 91 1016.5
20260508042937 50 76 2.0 5.0 0.00 0.00 0.00 91 1016.3
20260508041937 50 77 3.0 5.0 0.00 0.00 0.00 91 1016.3
20260508040937 51 76 2.0 5.0 0.00 0.00 0.00 91 1016.3
20260508035937 51 74 2.0 5.0 0.00 0.00 0.00 91 1016.2
20260508034937 51 78 2.0 5.0 0.00 0.00 0.00 90 1016.2